Weather History for Clarksburg, WV

Change the Weather History Date:

Monday, December 17, 2012

  Actual Average Record
Temperature  
Mean Temperature 52 °F -  
Max Temperature 57 °F 42 °F 67 °F (1984)
Min Temperature 48 °F 25 °F -3 °F (1932)
Degree Days  
Heating Degree Days 12    
Growing Degree Days 2 (Base 50)    
Moisture  
Dew Point 49 °F    
Average Humidity 91    
Maximum Humidity 100    
Minimum Humidity 72    
Precipitation  
Precipitation 0.38 in - - ()
Sea Level Pressure  
Sea Level Pressure 29.65 in    
Wind  
Wind Speed 3 mph (SW)    
Max Wind Speed 9 mph    
Max Gust Speed -    
Visibility 7 miles    
Events Rain    
Averages and records for this station are not official NWS values.
T = Trace of Precipitation, MM = Missing Value Source: NWS Daily Summary

Daily Weather History Graph

Daily Weather History Graph

Search for Another Location

Airport:

Trip Planner

Search our weather history database for the weather conditions in past years. The results will help you decide how hot, cold, wet, or windy it might be!

Date:

Astronomy

Dec. 17, 2012 Rise Set
Actual Time 7:35 AM EST 4:59 PM EST
Civil Twilight 7:04 AM EST 5:29 PM EST
Nautical Twilight 6:31 AM EST 6:03 PM EST
Astronomical Twilight 5:58 AM EST 6:36 PM EST
Moon 10:44 AM EST (12/17) 10:17 PM EST (12/17)
Length of Visible Light 10h 24m
Length of Day
9h 24m
Waxing Crescent, 24% of the Moon is Illuminated
Dec 17
Waxing Crescent
Dec 20
First Quarter
Dec 28
Full
Jan 4
Last Quarter
Jan 11
New

Hourly Weather History & Observations

Time (EST) Temp. Dew Point Humidity Pressure Visibility Wind Dir Wind Speed Gust Speed Precip Events Conditions
12:53 AM 55.0 °F 48.0 °F 77% 29.74 in 10.0 mi SSW 5.8 mph - N/A   Overcast
1:53 AM 55.0 °F 48.0 °F 77% 29.74 in 10.0 mi SSW 5.8 mph - 0.00 in   Overcast
2:53 AM 54.0 °F 48.9 °F 83% 29.75 in 10.0 mi SW 5.8 mph - 0.02 in   Overcast
3:31 AM 53.6 °F 50.0 °F 88% 29.78 in 7.0 mi Calm Calm - 0.01 in Rain Light Rain
3:44 AM 53.6 °F 50.0 °F 88% 29.78 in 10.0 mi WNW 3.5 mph - 0.01 in Rain Light Rain
3:51 AM 51.8 °F 50.0 °F 94% 29.78 in 2.5 mi West 3.5 mph - 0.06 in Rain Heavy Rain
3:53 AM 52.0 °F 50.0 °F 93% 29.76 in 2.5 mi West 4.6 mph - 0.06 in Rain Heavy Rain
4:06 AM 53.6 °F 50.0 °F 88% 29.77 in 5.0 mi Calm Calm - 0.02 in Rain Light Rain
4:53 AM 51.1 °F 50.0 °F 96% 29.74 in 10.0 mi Calm Calm - 0.02 in   Overcast
5:53 AM 51.1 °F 48.9 °F 92% 29.74 in 10.0 mi SE 3.5 mph - N/A   Overcast
6:53 AM 51.1 °F 48.9 °F 92% 29.75 in 10.0 mi Calm Calm - N/A   Overcast
7:38 AM 50.0 °F 48.2 °F 94% 29.78 in 0.8 mi NW 3.5 mph - N/A   Overcast
7:53 AM 50.0 °F 48.9 °F 96% 29.76 in 2.5 mi Calm Calm - 0.00 in Rain Light Rain
8:00 AM 50.0 °F 48.2 °F 94% 29.78 in 8.0 mi Calm Calm - 0.00 in   Overcast
8:53 AM 52.0 °F 50.0 °F 93% 29.76 in 10.0 mi Calm Calm - 0.01 in Rain Light Rain
9:00 AM 51.8 °F 48.2 °F 88% 29.78 in 2.5 mi Calm Calm - 0.02 in Rain Rain
9:13 AM 51.8 °F 50.0 °F 94% 29.78 in 10.0 mi Calm Calm - 0.02 in Rain Light Rain
9:53 AM 54.0 °F 50.0 °F 86% 29.76 in 10.0 mi Calm Calm - 0.02 in   Overcast
10:53 AM 55.0 °F 50.0 °F 83% 29.72 in 10.0 mi East 3.5 mph - N/A   Scattered Clouds
11:53 AM 57.0 °F 48.0 °F 72% 29.68 in 10.0 mi SSW 4.6 mph - N/A   Overcast
12:53 PM 57.0 °F 48.0 °F 72% 29.63 in 10.0 mi Calm Calm - N/A   Overcast
1:53 PM 55.0 °F 50.0 °F 83% 29.61 in 10.0 mi Calm Calm - 0.02 in Rain Light Rain
2:31 PM 53.6 °F 51.8 °F 94% 29.64 in 2.5 mi West 5.8 mph - 0.04 in Rain Rain
2:39 PM 53.6 °F 51.8 °F 94% 29.63 in 1.5 mi West 3.5 mph - 0.08 in Rain Heavy Rain
2:48 PM 53.6 °F 51.8 °F 94% 29.63 in 3.0 mi Calm Calm - 0.09 in Rain Rain
2:53 PM 53.1 °F 51.1 °F 93% 29.60 in 5.0 mi Calm Calm - 0.09 in Rain Light Rain
3:22 PM 53.6 °F 51.8 °F 94% 29.61 in 2.5 mi Calm Calm - 0.03 in Rain Rain
3:35 PM 51.8 °F 51.8 °F 100% 29.60 in 5.0 mi Calm Calm - 0.05 in Rain Light Rain
3:53 PM 52.0 °F 51.1 °F 97% 29.59 in 3.0 mi Calm Calm - 0.06 in Rain Light Rain
4:02 PM 51.8 °F 51.8 °F 100% 29.60 in 6.0 mi ESE 4.6 mph - 0.01 in Rain Light Rain
4:20 PM 51.8 °F 51.8 °F 100% 29.60 in 5.0 mi Calm Calm - 0.01 in Rain Light Rain
4:35 PM 51.8 °F 50.0 °F 94% 29.58 in 10.0 mi Calm Calm - 0.01 in   Overcast
4:53 PM 51.1 °F 50.0 °F 96% 29.56 in 8.0 mi East 3.5 mph - 0.01 in Rain Light Rain
7:22 PM 51.8 °F 50.0 °F 94% 29.56 in 9.0 mi Calm Calm - 0.01 in   Overcast
7:53 PM 51.1 °F 50.0 °F 96% 29.56 in 9.0 mi South 3.5 mph - 0.01 in   Overcast
8:02 PM 51.8 °F 50.0 °F 94% 29.57 in 6.0 mi West 3.5 mph - 0.00 in Rain Light Rain
8:06 PM 51.8 °F 48.2 °F 88% 29.58 in 1.8 mi West 5.8 mph - 0.00 in Rain Light Rain
8:24 PM 50.0 °F 48.2 °F 94% 29.54 in 4.0 mi SE 5.8 mph - 0.02 in Rain Light Rain
8:53 PM 50.0 °F 48.9 °F 96% 29.54 in 10.0 mi SSW 4.6 mph - 0.02 in Rain Light Rain
9:00 PM 50.0 °F 48.2 °F 94% 29.55 in 10.0 mi SSW 6.9 mph - 0.00 in   Overcast
9:05 PM 50.0 °F 48.2 °F 94% 29.56 in 10.0 mi SSW 5.8 mph - 0.00 in   Overcast
9:13 PM 50.0 °F 48.2 °F 94% 29.55 in 10.0 mi South 5.8 mph - 0.00 in   Overcast
9:21 PM 50.0 °F 48.2 °F 94% 29.55 in 10.0 mi South 4.6 mph - 0.00 in Rain Light Rain
9:31 PM 51.8 °F 48.2 °F 88% 29.55 in 10.0 mi South 6.9 mph - 0.00 in   Overcast
9:49 PM 51.8 °F 48.2 °F 88% 29.55 in 3.0 mi SW 8.1 mph - 0.04 in Rain Heavy Rain
9:53 PM 51.1 °F 48.9 °F 92% 29.54 in 4.0 mi West 9.2 mph - 0.04 in Rain Light Rain
10:08 PM 50.0 °F 46.4 °F 87% 29.55 in 10.0 mi WSW 4.6 mph - 0.00 in   Mostly Cloudy
10:53 PM 48.9 °F 45.0 °F 86% 29.55 in 10.0 mi SW 8.1 mph - 0.00 in   Overcast
11:53 PM 48.0 °F 45.0 °F 89% 29.55 in 10.0 mi WSW 4.6 mph - N/A   Overcast